# Mixing ratio of CO2 (xCO2) in dry air measured onboard R/V Mirai (NODC Code: unknown) of the Japan Marine Science and Technology Center (JAMSTEC).,,,,,,,,,,,,,,,,,,,,,,
# Ver 3.0 : 11 August 2005,,,,,,,,,,,,,,,,,,,,,,
# Measured by Meteorological Research Institute. ,,,,,,,,,,,,,,,,,,,,,,
# PI : H. Y. Inoue,,,,,,,,,,,,,,,,,,,,,,
# Concetrarion scale = MRI87,,,,,,,,,,,,,,,,,,,,,,
# Date and Time = UTC,,,,,,,,,,,,,,,,,,,,,,
"# Quality flag (F); good=2, questionable=3, bad =4, not reported = 5, no data =9",,,,,,,,,,,,,,,,,,,,,,
# Cruise Report: http://www.jamstec.go.jp/mirai/track_line/MR99-K01.html,,,,,,,,,,,,,,,,,,,,,,
Ship,Cruise,Serial No.,Date,,,Time,,Latitude,Longitude,xCO2_Air,F,xCO2_Sea,F,Wind_Dir,Wind_Spd,Atm_Prs,Atm_Tmp.,SST,F,SSS,F,pH2O
,,,Year,Month,Day,Hour,Min.,Deg.,Deg.,ppm,,ppm,,Deg.,m/s,hPa,deg.C,deg.C,,,,hPa
Mirai,MR99K1,1,1999,2,8,12,30,38.7967,142.5417,460.9,4,-9.9,9,304,6.1,1019.5,1.9,10.93,2,34.213,2,12.81
Mirai,MR99K1,2,1999,2,8,12,36,38.7723,142.5439,460.9,4,-9.9,9,339,7,1019.6,1.7,10.88,2,34.192,2,12.77
Mirai,MR99K1,3,1999,2,8,12,42,38.7481,142.5457,461,4,-9.9,9,312,7.9,1019.4,1.9,10.65,2,34.225,2,12.57
Mirai,MR99K1,4,1999,2,8,12,48,38.723,142.5483,461,4,-9.9,9,330,7.1,1019.6,1.7,9.58,2,34.22,2,11.7
Mirai,MR99K1,5,1999,2,8,13,0,38.6732,142.5575,-9.9,9,340.4,2,343,8.1,1019.6,1.7,9.09,2,33.888,2,11.33
Mirai,MR99K1,6,1999,2,8,13,12,38.6235,142.5643,-9.9,9,342.5,2,349,8.2,1019.6,1.5,8.97,2,34.007,2,11.24
Mirai,MR99K1,7,1999,2,8,13,24,38.5734,142.5715,-9.9,9,346.2,2,338,5.7,1019.5,1.7,8.58,2,33.891,2,10.94
Mirai,MR99K1,8,1999,2,8,13,36,38.523,142.5792,-9.9,9,344.7,2,336,8.6,1019.5,1.9,8.64,2,33.893,2,10.99
Mirai,MR99K1,9,1999,2,8,15,30,38.0393,142.6237,461.8,4,-9.9,9,337,10.6,1020.1,1.8,11.15,2,34.177,2,13
Mirai,MR99K1,10,1999,2,8,15,36,38.013,142.6256,461.8,4,-9.9,9,326,11.8,1020,1.7,11.67,2,34.269,2,13.46
Mirai,MR99K1,11,1999,2,8,15,48,37.9593,142.6282,-9.9,9,349.8,2,352,8.7,1020.1,1.6,11.49,2,34.336,2,13.29
Mirai,MR99K1,12,1999,2,8,16,0,37.9055,142.6331,-9.9,9,321,2,332,12.7,1020,1.9,11.25,2,34.227,2,13.08
Mirai,MR99K1,13,1999,2,8,16,12,37.8527,142.6382,-9.9,9,320.4,2,336,11.4,1020,2.1,10.53,2,34.239,2,12.47
Mirai,MR99K1,14,1999,2,8,16,24,37.8009,142.6431,-9.9,9,326.6,2,343,10.6,1020.1,1.9,11.07,2,34.088,2,12.94
Mirai,MR99K1,15,1999,2,8,17,0,37.656,142.5943,448.3,4,-9.9,9,353,10.6,1020.2,2,11.17,2,34.321,2,13.01
Mirai,MR99K1,16,1999,2,8,17,6,37.6313,142.5816,447.6,4,-9.9,9,0,9,1020.1,1.8,9.66,2,34.182,2,11.77
Mirai,MR99K1,17,1999,2,8,17,18,37.58,142.5867,-9.9,9,336.3,2,351,7.9,1020.2,1.9,9.13,2,33.969,2,11.36
Mirai,MR99K1,18,1999,2,8,17,30,37.5275,142.6027,-9.9,9,335.9,2,350,8.1,1019.9,2.2,8.92,2,33.949,2,11.2
Mirai,MR99K1,19,1999,2,8,17,42,37.4762,142.6179,-9.9,9,339.7,2,343,10.2,1020,1.8,8.67,2,33.881,2,11.01
Mirai,MR99K1,20,1999,2,8,17,54,37.4242,142.6361,-9.9,9,340.5,2,352,9.2,1020,2,9.06,2,33.847,2,11.31
Mirai,MR99K1,21,1999,2,8,18,30,37.269,142.6842,442.1,4,-9.9,9,349,11.1,1019.9,2.5,10.81,2,34.041,2,12.71
Mirai,MR99K1,22,1999,2,8,18,36,37.2436,142.6897,442,4,-9.9,9,343,8.8,1020,2.5,12.91,2,34.152,2,14.6
Mirai,MR99K1,23,1999,2,8,18,48,37.1922,142.6974,-9.9,9,334.4,2,352,8.7,1019.9,2.8,14.75,2,34.545,2,16.45
Mirai,MR99K1,24,1999,2,8,19,0,37.1405,142.7019,-9.9,9,327.8,2,353,12.8,1019.9,2.6,14.92,2,34.615,2,16.63
Mirai,MR99K1,25,1999,2,8,19,12,37.0907,142.7144,-9.9,9,317.2,2,8,9.4,1019.8,3.1,17.05,2,34.618,2,19.06
Mirai,MR99K1,26,1999,2,8,19,24,37.0413,142.7208,-9.9,9,321,2,3,9.6,1019.9,3.2,18.03,2,34.711,2,20.28
Mirai,MR99K1,27,1999,2,8,20,0,36.889,142.7355,451.5,4,-9.9,9,348,9.9,1020,4.1,19.05,2,34.77,2,21.61
Mirai,MR99K1,28,1999,2,8,20,6,36.8638,142.737,452.4,4,-9.9,9,346,9.9,1019.9,4.1,19,2,34.754,2,21.55
Mirai,MR99K1,29,1999,2,8,20,18,36.8152,142.7417,-9.9,9,309.7,2,5,12.8,1019.6,4,19.12,2,34.738,2,21.71
Mirai,MR99K1,30,1999,2,8,20,30,36.7657,142.7463,-9.9,9,309,2,3,10.1,1019.7,4.2,19.58,2,34.746,2,22.33
Mirai,MR99K1,31,1999,2,8,20,42,36.7161,142.7482,-9.9,9,310.1,2,27,10,1019.8,5,19.4,2,34.775,2,22.08
Mirai,MR99K1,32,1999,2,8,20,54,36.6657,142.7503,-9.9,9,311,2,25,11.5,1019.7,4.8,18.96,2,34.741,2,21.49
Mirai,MR99K1,33,1999,2,8,21,30,36.5153,142.7491,463.8,4,-9.9,9,355,9.7,1019.8,5.5,19.32,2,34.734,2,21.97
Mirai,MR99K1,34,1999,2,8,21,36,36.49,142.7483,456.8,4,-9.9,9,0,9,1019.7,5.1,19.44,2,34.737,2,22.14
Mirai,MR99K1,35,1999,2,8,21,48,36.4391,142.7468,-9.9,9,310.5,2,11,10.9,1019.7,5.6,19.05,2,34.777,2,21.61
Mirai,MR99K1,36,1999,2,8,22,0,36.3883,142.748,-9.9,9,312,2,4,8.1,1019.9,5.2,18.72,2,34.741,2,21.17
Mirai,MR99K1,37,1999,2,8,22,12,36.3382,142.7515,-9.9,9,312.6,2,11,9.8,1020,6,18.67,2,34.737,2,21.1
Mirai,MR99K1,38,1999,2,8,22,24,36.2871,142.7558,-9.9,9,312.4,2,0,8.3,1020.5,6,18.74,2,34.729,2,21.2
Mirai,MR99K1,39,1999,2,8,23,0,36.1358,142.7646,464.2,4,-9.9,9,18,9.3,1020.1,7.3,18.68,2,34.738,2,21.12
Mirai,MR99K1,40,1999,2,8,23,6,36.1111,142.7663,464.5,4,-9.9,9,28,11,1020.7,7.2,18.68,2,34.738,2,21.12
Mirai,MR99K1,41,1999,2,8,23,18,36.0603,142.7698,-9.9,9,314,2,359,8.1,1020.2,7.7,18.63,2,34.732,2,21.05
Mirai,MR99K1,42,1999,2,8,23,30,36.0097,142.7728,-9.9,9,312.8,2,11,12.9,1020,7.7,18.58,2,34.717,2,20.98
Mirai,MR99K1,43,1999,2,8,23,42,35.9596,142.7751,-9.9,9,313.8,2,8,9.7,1019.8,8.1,18.58,2,34.715,2,20.98
Mirai,MR99K1,44,1999,2,8,23,54,35.9077,142.7764,-9.9,9,313,2,359,8.2,1019.9,7.8,18.57,2,34.725,2,20.97
Mirai,MR99K1,45,1999,2,9,0,30,35.7512,142.7945,436.7,4,-9.9,9,34,7.3,1020.3,7.8,18.59,2,34.724,2,21
Mirai,MR99K1,46,1999,2,9,0,36,35.726,142.7971,445.2,4,-9.9,9,25,11.7,1020.2,8.4,18.64,2,34.718,2,21.06
Mirai,MR99K1,47,1999,2,9,0,48,35.6748,142.8026,-9.9,9,312.7,2,21,9.1,1020.4,8.4,18.77,2,34.732,2,21.24
Mirai,MR99K1,48,1999,2,9,1,0,35.6243,142.8059,-9.9,9,311.5,2,19,8.8,1020.3,8.5,18.77,2,34.735,2,21.24
Mirai,MR99K1,49,1999,2,9,1,12,35.574,142.8089,-9.9,9,311.5,2,19,8.9,1020.2,8.7,18.74,2,34.735,2,21.2
Mirai,MR99K1,50,1999,2,9,1,24,35.5227,142.8127,-9.9,9,312.7,2,22,9.8,1020.1,8.8,18.65,2,34.748,2,21.08
Mirai,MR99K1,51,1999,2,9,2,0,35.3699,142.8315,421.2,4,-9.9,9,27,8.6,1019.5,9.5,18.76,2,34.732,2,21.22
Mirai,MR99K1,52,1999,2,9,2,6,35.3434,142.8339,420.6,4,-9.9,9,30,8.8,1019.3,9.6,18.76,2,34.734,2,21.22
Mirai,MR99K1,53,1999,2,9,2,18,35.293,142.8374,-9.9,9,311.3,2,17,9.6,1019.2,9.3,18.8,2,34.733,2,21.28
Mirai,MR99K1,54,1999,2,9,2,30,35.2416,142.8403,-9.9,9,311,2,13,8.2,1018.8,9.8,18.8,2,34.724,2,21.28
Mirai,MR99K1,55,1999,2,9,2,42,35.191,142.8424,-9.9,9,310.9,2,48,8.3,1018.2,10.2,18.82,2,34.723,2,21.3
Mirai,MR99K1,56,1999,2,9,2,54,35.1399,142.8446,-9.9,9,311.7,2,47,5.6,1018.3,10.6,18.8,2,34.726,2,21.28
Mirai,MR99K1,57,1999,2,9,3,30,34.9913,142.8564,471.6,4,-9.9,9,52,10.1,1017.3,10.8,18.78,2,34.735,2,21.25
Mirai,MR99K1,58,1999,2,9,3,36,34.9657,142.8593,471.6,4,-9.9,9,54,11.5,1016.9,10.8,18.71,2,34.734,2,21.16
Mirai,MR99K1,59,1999,2,9,3,48,34.916,142.8668,-9.9,9,313.5,2,72,8.7,1016.8,11,18.78,2,34.718,2,21.25
Mirai,MR99K1,60,1999,2,9,4,0,34.8668,142.8741,-9.9,9,319,2,69,11.8,1016.7,11.4,19.12,2,34.746,2,21.71
Mirai,MR99K1,61,1999,2,9,4,12,34.817,142.8815,-9.9,9,316,2,71,9.4,1016.6,11.2,19.13,2,34.751,2,21.72
Mirai,MR99K1,62,1999,2,9,4,24,34.7659,142.8872,-9.9,9,308.6,2,58,9.3,1016.7,10.9,18.98,2,34.74,2,21.52
Mirai,MR99K1,63,1999,2,10,3,30,28.6315,143.3785,451.6,4,-9.9,9,292,8.9,1019.2,18.7,21.05,2,34.881,2,24.46
Mirai,MR99K1,64,1999,2,10,3,36,28.6051,143.3804,451.6,4,-9.9,9,289,10.2,1019.1,18.7,21.05,2,34.884,2,24.46
Mirai,MR99K1,65,1999,2,10,3,48,28.5527,143.3857,-9.9,9,309.7,2,295,7.4,1019,18.8,21.02,2,34.894,2,24.42
Mirai,MR99K1,66,1999,2,10,4,0,28.5015,143.3904,-9.9,9,308.7,2,301,10.7,1018.8,18.5,21.01,2,34.899,2,24.4
Mirai,MR99K1,67,1999,2,10,4,12,28.45,143.3954,-9.9,9,308.8,2,313,7.2,1018.7,18.5,20.96,2,34.89,2,24.33
Mirai,MR99K1,68,1999,2,10,4,24,28.3972,143.4,-9.9,9,308.6,2,296,6.4,1018.7,18.6,20.97,2,34.89,2,24.34
Mirai,MR99K1,69,1999,2,10,5,0,28.2424,143.4086,434.5,4,-9.9,9,298,9.6,1018.4,19.1,21.09,2,34.907,2,24.52
Mirai,MR99K1,70,1999,2,10,5,6,28.2167,143.4097,436.4,4,-9.9,9,302,7.3,1018.7,18.9,21.12,2,34.906,2,24.57
Mirai,MR99K1,71,1999,2,10,5,18,28.1652,143.4119,-9.9,9,310.5,2,302,9.1,1018.6,19.1,21.15,2,34.904,2,24.61
Mirai,MR99K1,72,1999,2,10,5,30,28.1143,143.4152,-9.9,9,309.7,2,310,7.6,1018.8,19.1,21.18,2,34.902,2,24.66
Mirai,MR99K1,73,1999,2,10,5,42,28.0618,143.4184,-9.9,9,309.6,2,293,8.3,1018.6,19.1,21.21,2,34.901,2,24.71
Mirai,MR99K1,74,1999,2,10,5,54,28.0096,143.4207,-9.9,9,309.9,2,309,7.1,1018.8,19.1,21.17,2,34.901,2,24.64
Mirai,MR99K1,75,1999,2,10,6,30,27.8574,143.4313,451.2,4,-9.9,9,320,7.5,1018.7,19.2,21.58,2,34.902,2,25.26
Mirai,MR99K1,76,1999,2,10,6,36,27.833,143.4335,451.2,4,-9.9,9,306,5.8,1018.7,19.2,21.6,2,34.899,2,25.29
Mirai,MR99K1,77,1999,2,10,6,48,27.7825,143.4391,-9.9,9,312.4,2,333,4.4,1018.8,18.9,21.66,2,34.89,2,25.39
Mirai,MR99K1,78,1999,2,10,7,0,27.7313,143.4438,-9.9,9,311.6,2,305,6.4,1018.9,19.1,21.69,2,34.884,2,25.44
Mirai,MR99K1,79,1999,2,10,7,12,27.6801,143.4491,-9.9,9,311,2,290,5.2,1018.8,19,21.73,2,34.892,2,25.5
Mirai,MR99K1,80,1999,2,10,7,24,27.63,143.455,-9.9,9,311.2,2,315,5.3,1018.9,18.9,21.73,2,34.893,2,25.5
Mirai,MR99K1,81,1999,2,10,8,0,27.4763,143.4694,451.4,4,-9.9,9,327,5,1019.3,18.5,21.67,2,34.894,2,25.4
Mirai,MR99K1,82,1999,2,10,8,6,27.4493,143.4724,451.4,4,-9.9,9,312,3.6,1019.6,18.4,21.66,2,34.893,2,25.39
Mirai,MR99K1,83,1999,2,10,8,18,27.3961,143.4783,-9.9,9,311.8,2,316,5.2,1019.5,18.5,21.72,2,34.894,2,25.48
Mirai,MR99K1,84,1999,2,10,8,30,27.343,143.4847,-9.9,9,314.8,2,305,3.5,1019.7,18.4,21.9,2,34.891,2,25.77
Mirai,MR99K1,85,1999,2,10,8,42,27.2896,143.4913,-9.9,9,316.6,2,317,5.8,1019.9,18.5,21.86,2,34.91,2,25.7
Mirai,MR99K1,86,1999,2,10,8,54,27.2362,143.497,-9.9,9,316.9,2,325,4.2,1020,18.5,21.8,2,34.898,2,25.61
Mirai,MR99K1,87,1999,2,10,9,30,27.0744,143.5054,451.1,4,-9.9,9,315,4.9,1020.2,18.6,21.69,2,34.895,2,25.44
Mirai,MR99K1,88,1999,2,10,9,36,27.0472,143.5062,451,4,-9.9,9,318,5.8,1020.3,18.6,21.66,2,34.896,2,25.39
Mirai,MR99K1,89,1999,2,10,9,48,26.9917,143.5064,-9.9,9,312.1,2,308,4.6,1020.6,18.6,21.56,2,34.905,2,25.23
Mirai,MR99K1,90,1999,2,10,10,0,26.9358,143.5079,-9.9,9,310,2,322,6.4,1020.7,18.6,21.49,2,34.909,2,25.12
Mirai,MR99K1,91,1999,2,10,10,12,26.8817,143.5089,-9.9,9,309.5,2,336,6.5,1020.8,18.6,21.2,2,34.899,2,24.69
Mirai,MR99K1,92,1999,2,10,10,24,26.8287,143.5103,-9.9,9,315.2,2,0,4,1021,18.7,21.52,2,34.894,2,25.17
Mirai,MR99K1,93,1999,2,10,11,0,26.6734,143.5219,450.3,4,-9.9,9,359,7.1,1021.5,18.6,21.76,2,34.895,2,25.55
Mirai,MR99K1,94,1999,2,10,11,6,26.647,143.5241,450.3,4,-9.9,9,0,5,1021.5,18.6,21.75,2,34.9,2,25.53
Mirai,MR99K1,95,1999,2,10,11,18,26.5937,143.5293,-9.9,9,314.6,2,356,5,1021.7,18.7,21.78,2,34.896,2,25.58
Mirai,MR99K1,96,1999,2,10,11,30,26.5408,143.5344,-9.9,9,313.9,2,24,4,1021.8,18.7,21.71,2,34.911,2,25.47
Mirai,MR99K1,97,1999,2,10,11,42,26.4892,143.5419,-9.9,9,311.5,2,18,6.4,1021.8,18.8,21.8,2,34.895,2,25.61
Mirai,MR99K1,98,1999,2,10,11,54,26.4362,143.5486,-9.9,9,314.4,2,4,4.5,1021.8,18.9,21.84,2,34.904,2,25.67
Mirai,MR99K1,99,1999,2,10,12,30,26.2761,143.5646,450.4,4,-9.9,9,36,3.6,1021.6,19.1,21.74,2,34.883,2,25.51
Mirai,MR99K1,100,1999,2,10,12,36,26.2495,143.5672,450.4,4,-9.9,9,32,3.5,1021.5,19.1,21.73,2,34.891,2,25.5
Mirai,MR99K1,101,1999,2,10,12,48,26.1954,143.5719,-9.9,9,314.7,2,36,5.3,1021.4,19.1,21.8,2,34.893,2,25.61
Mirai,MR99K1,102,1999,2,10,13,0,26.1424,143.5765,-9.9,9,311.7,2,72,5.5,1021.3,19.2,21.76,2,34.882,2,25.55
Mirai,MR99K1,103,1999,2,10,13,12,26.0896,143.5815,-9.9,9,311,2,33,5.6,1021.4,19.1,21.76,2,34.878,2,25.55
Mirai,MR99K1,104,1999,2,10,13,24,26.0368,143.5855,-9.9,9,309.2,2,34,5,1021.2,19.2,21.77,2,34.878,2,25.56
Mirai,MR99K1,105,1999,2,10,14,0,25.8796,143.595,377,2,-9.9,9,56,6.8,1020.7,19.3,21.88,2,34.896,2,25.74
Mirai,MR99K1,106,1999,2,10,14,6,25.8532,143.5966,376,2,-9.9,9,40,6.5,1020.7,19.3,21.88,2,34.898,2,25.74
Mirai,MR99K1,107,1999,2,10,14,18,25.8011,143.5996,-9.9,9,310.9,2,58,6.2,1020.7,19.4,21.91,2,34.889,2,25.78
Mirai,MR99K1,108,1999,2,10,14,30,25.7485,143.6023,-9.9,9,310.9,2,71,3.9,1020.6,19.4,21.96,2,34.892,2,25.86
Mirai,MR99K1,109,1999,2,10,14,42,25.696,143.6056,-9.9,9,311.4,2,23,5.6,1020.5,19.5,22.01,2,34.897,2,25.94
Mirai,MR99K1,110,1999,2,10,14,54,25.6432,143.6099,-9.9,9,313.1,2,65,6.9,1020.6,19.5,22.09,2,34.909,2,26.07
Mirai,MR99K1,111,1999,2,10,15,30,25.4819,143.6257,374.8,2,-9.9,9,56.33333333,5.166666667,1020.13,19.6,21.83,2,34.89,2,25.66
Mirai,MR99K1,112,1999,2,10,15,36,25.4551,143.6287,374.8,2,-9.9,9,56.66666667,5.233333333,1020.07,19.6,21.82,2,34.896,2,25.64
Mirai,MR99K1,113,1999,2,10,15,48,25.4015,143.6338,-9.9,9,313.8,2,57,5.3,1020,19.7,22.12,2,34.902,2,26.12
Mirai,MR99K1,114,1999,2,10,16,0,25.3474,143.6389,-9.9,9,314.3,2,65,6.1,1020,19.7,22.09,2,34.881,2,26.07
Mirai,MR99K1,115,1999,2,10,16,12,25.2932,143.645,-9.9,9,312.9,2,73,6.9,1020,19.9,21.8,2,34.859,2,25.61
Mirai,MR99K1,116,1999,2,10,16,24,25.2399,143.6498,-9.9,9,312.3,2,59,6,1019.8,19.8,21.9,2,34.873,2,25.77
Mirai,MR99K1,117,1999,2,10,17,0,25.0802,143.6628,373.9,2,-9.9,9,52,6.1,1019.5,19.9,22.1,2,34.877,2,26.09
Mirai,MR99K1,118,1999,2,10,17,6,25.0537,143.6647,373.9,2,-9.9,9,69,8.1,1019.4,20,21.99,2,34.884,2,25.91
Mirai,MR99K1,119,1999,2,10,17,18,25.0007,143.6697,-9.9,9,311.5,2,8,7.5,1019.1,20.1,21.61,2,34.863,2,25.31
Mirai,MR99K1,120,1999,2,10,17,30,24.9467,143.6752,-9.9,9,312.8,2,70,6.8,1019.2,20.2,21.72,2,34.842,2,25.48
Mirai,MR99K1,121,1999,2,10,17,42,24.8926,143.6812,-9.9,9,312.3,2,61,7.2,1019.1,20.1,21.66,2,34.853,2,25.39
Mirai,MR99K1,122,1999,2,10,17,54,24.8377,143.6878,-9.9,9,311.5,2,55,7.6,1018.9,20,21.67,2,34.846,2,25.4
Mirai,MR99K1,123,1999,2,10,18,30,24.6684,143.7119,373.5,2,-9.9,9,85,7,1018.6,20.5,24.33,2,34.89,2,29.84
Mirai,MR99K1,124,1999,2,10,18,36,24.6403,143.7152,373.6,2,-9.9,9,75,7.5,1018.6,20.4,24.36,2,34.898,2,29.89
Mirai,MR99K1,125,1999,2,10,18,48,24.5843,143.7199,-9.9,9,321.1,2,87,7.6,1018.4,20.4,24.22,2,34.904,2,29.66
Mirai,MR99K1,126,1999,2,10,19,0,24.5288,143.7235,-9.9,9,320.3,2,101,9.3,1018.4,20.4,23.63,2,34.929,2,28.61
Mirai,MR99K1,127,1999,2,10,19,12,24.4762,143.7281,-9.9,9,316.4,2,106,9.5,1018.1,20.4,22.91,2,34.859,2,27.4
Mirai,MR99K1,128,1999,2,10,19,24,24.4238,143.7314,-9.9,9,314.2,2,107,10.8,1018.2,20.5,22.95,2,34.841,2,27.47
Mirai,MR99K1,129,1999,2,10,20,0,24.2681,143.7413,373.1,2,-9.9,9,85,6.6,1018.3,20.5,24.12,2,34.876,2,29.48
Mirai,MR99K1,130,1999,2,10,20,6,24.2424,143.7432,373.1,2,-9.9,9,98,6.3,1018.2,20.6,24.35,2,34.888,2,29.87
Mirai,MR99K1,131,1999,2,10,20,18,24.191,143.7475,-9.9,9,320.9,2,91,6.8,1018.3,20.7,24.55,2,34.893,2,30.24
Mirai,MR99K1,132,1999,2,10,20,30,24.1402,143.7516,-9.9,9,321.4,2,98,6.3,1018.3,20.9,24.63,2,34.891,2,30.38
Mirai,MR99K1,133,1999,2,10,20,42,24.0893,143.7555,-9.9,9,322.3,2,77,6.6,1018.3,20.9,24.7,2,34.894,2,30.51
Mirai,MR99K1,134,1999,2,10,20,54,24.0375,143.7588,-9.9,9,321.8,2,85,7.9,1018.4,21,24.71,2,34.895,2,30.53
Mirai,MR99K1,135,1999,2,10,21,30,23.8869,143.7658,373.2,2,-9.9,9,71,8.1,1018.2,21.1,24.53,2,34.906,2,30.2
Mirai,MR99K1,136,1999,2,10,21,36,23.8627,143.7671,373,2,-9.9,9,72,8.5,1018.2,21.1,24.45,2,34.906,2,30.05
Mirai,MR99K1,137,1999,2,10,21,48,23.8125,143.7701,-9.9,9,319.9,2,83,8.9,1018.2,21.2,24.12,2,34.916,2,29.48
Mirai,MR99K1,138,1999,2,10,22,0,23.7619,143.7731,-9.9,9,317.5,2,71,9.7,1018.2,21.4,23.58,2,34.92,2,28.52
Mirai,MR99K1,139,1999,2,10,22,12,23.7102,143.7767,-9.9,9,316.6,2,91,9.9,1018,21.4,23.03,2,34.904,2,27.6
Mirai,MR99K1,140,1999,2,10,22,24,23.6589,143.7815,-9.9,9,315.4,2,74,8.4,1018.2,21.5,22.86,2,34.878,2,27.32
Mirai,MR99K1,141,1999,2,10,23,0,23.5053,143.7962,374.6,2,-9.9,9,89,9.5,1018.1,22.1,23.65,2,34.878,2,28.65
Mirai,MR99K1,142,1999,2,10,23,6,23.4793,143.7996,374.3,2,-9.9,9,94,10.2,1017.9,22.1,23.86,2,34.883,2,29.02
Mirai,MR99K1,143,1999,2,10,23,18,23.4279,143.8061,-9.9,9,323.3,2,91,10.5,1018,22.3,24.09,2,34.886,2,29.42
Mirai,MR99K1,144,1999,2,10,23,30,23.3761,143.8132,-9.9,9,322.5,2,102,10.8,1017.9,22.6,24.41,2,34.878,2,29.98
Mirai,MR99K1,145,1999,2,10,23,42,23.3233,143.8199,-9.9,9,322,2,95,10.1,1018.1,22.6,24.56,2,34.882,2,30.25
Mirai,MR99K1,146,1999,2,10,23,54,23.2695,143.8254,-9.9,9,321.4,2,106,9.2,1018.1,22.8,24.57,2,34.886,2,30.27
Mirai,MR99K1,147,1999,2,11,0,30,23.1062,143.8318,372.4,2,-9.9,9,111,8.8,1018.1,23,24.54,2,34.881,2,30.22
Mirai,MR99K1,148,1999,2,11,0,36,23.0788,143.8327,372.4,2,-9.9,9,113,9.3,1017.8,23.1,24.51,2,34.876,2,30.16
Mirai,MR99K1,149,1999,2,11,0,48,23.0251,143.8335,-9.9,9,321.7,2,113,8.8,1018,23.3,24.68,2,34.889,2,30.47
Mirai,MR99K1,150,1999,2,11,1,0,22.9703,143.8343,-9.9,9,324.1,2,101,8.4,1017.7,23.2,24.63,2,34.897,2,30.38
Mirai,MR99K1,319,1999,2,15,8,0,7.8813,146.4016,370.6,2,-9.9,9,148,7,1009.3,28,28.95,2,34.318,2,39.19
Mirai,MR99K1,320,1999,2,15,8,6,7.859,146.413,370.6,2,-9.9,9,142,7.9,1009,28.1,28.95,2,34.309,2,39.19
Mirai,MR99K1,321,1999,2,15,8,18,7.8148,146.4347,-9.9,9,364.3,2,143,9.6,1008.9,28.2,28.97,2,34.328,2,39.23
Mirai,MR99K1,322,1999,2,15,8,30,7.771,146.4564,-9.9,9,364.6,2,137,8.5,1009,28.2,28.94,2,34.343,2,39.17
Mirai,MR99K1,323,1999,2,15,8,42,7.7271,146.478,-9.9,9,364.2,2,140,8.3,1009,28.2,28.94,2,34.344,2,39.17
Mirai,MR99K1,324,1999,2,15,8,54,7.6828,146.4986,-9.9,9,363.7,2,139,7.9,1009.1,28.3,28.93,2,34.344,2,39.14
Mirai,MR99K1,325,1999,2,15,9,6,7.6349,146.51,-9.9,9,366.3,2,149,7.1,1009.5,28,28.95,2,34.354,2,39.19
Mirai,MR99K1,326,1999,2,15,10,0,7.4304,146.5999,372.4,2,-9.9,9,150,6,1010,27.8,28.93,2,34.342,2,39.14
Mirai,MR99K1,327,1999,2,15,10,6,7.4047,146.6048,371.9,2,-9.9,9,140,6.6,1009.7,27.7,28.92,2,34.34,2,39.12
Mirai,MR99K1,328,1999,2,15,10,18,7.3539,146.6143,-9.9,9,365.7,2,149,7.3,1009.8,27.9,28.92,2,34.34,2,39.12
Mirai,MR99K1,329,1999,2,15,10,30,7.3034,146.6234,-9.9,9,365.9,2,141,8.3,1009.9,28,28.94,2,34.342,2,39.17
Mirai,MR99K1,330,1999,2,15,10,42,7.2537,146.6326,-9.9,9,365.3,2,138,8.6,1010.1,28.1,28.92,2,34.334,2,39.12
Mirai,MR99K1,331,1999,2,15,10,54,7.2031,146.6415,-9.9,9,365.3,2,134,8.2,1010.3,28.2,28.93,2,34.335,2,39.14
Mirai,MR99K1,332,1999,2,15,11,6,7.1527,146.6507,-9.9,9,365.8,2,133,8.9,1010.4,28.3,28.92,2,34.345,2,39.12
Mirai,MR99K1,333,1999,2,15,11,36,7.055,146.6667,370.6,2,-9.9,9,138,8,1010.7,28.3,28.99,2,34.381,2,39.28
Mirai,MR99K1,334,1999,2,15,11,42,7.0339,146.6707,370.4,2,-9.9,9,146,8.6,1010.5,28.4,29.02,2,34.385,2,39.35
Mirai,MR99K1,335,1999,2,15,11,54,6.9844,146.681,-9.9,9,370,2,142,9.1,1010.6,28.2,29.11,2,34.407,2,39.55
Mirai,MR99K1,336,1999,2,15,12,6,6.9353,146.6921,-9.9,9,370.8,2,142,9.3,1010.6,28.2,29.2,2,34.398,2,39.76
Mirai,MR99K1,337,1999,2,15,12,18,6.8861,146.6999,-9.9,9,370.6,2,147,8.8,1010.7,28.2,29.2,2,34.398,2,39.76
Mirai,MR99K1,338,1999,2,15,12,30,6.8368,146.7084,-9.9,9,371,2,151,8.3,1010.8,28.3,29.25,2,34.4,2,39.88
Mirai,MR99K1,339,1999,2,15,12,42,6.7873,146.7153,-9.9,9,371.5,2,142,7.8,1010.9,28.3,29.27,2,34.401,2,39.93
Mirai,MR99K1,340,1999,2,15,13,12,6.6614,146.7352,372.8,4,-9.9,9,131,7.2,1010.6,28.3,29.21,2,34.366,2,39.79
Mirai,MR99K1,341,1999,2,15,13,18,6.6355,146.739,372.6,2,-9.9,9,142,6.7,1010.5,28.4,29.23,2,34.379,2,39.83
Mirai,MR99K1,342,1999,2,15,13,30,6.585,146.7483,-9.9,9,375,2,138,9.2,1010.5,28.4,29.24,2,34.401,2,39.86
Mirai,MR99K1,343,1999,2,15,13,42,6.535,146.7594,-9.9,9,375.9,2,131,8.6,1010.4,28.4,29.26,2,34.413,2,39.9
Mirai,MR99K1,344,1999,2,15,13,54,6.4848,146.7691,-9.9,9,376.8,2,135,8.2,1010.4,28.3,29.28,2,34.421,2,39.95
Mirai,MR99K1,345,1999,2,15,14,6,6.4343,146.7787,-9.9,9,376.6,2,131,8.2,1010.1,28.2,29.28,2,34.416,2,39.95
Mirai,MR99K1,346,1999,2,15,14,18,6.3834,146.7879,-9.9,9,376.3,2,129,7.9,1010.1,28.3,29.27,2,34.404,2,39.93
Mirai,MR99K1,347,1999,2,15,14,48,6.2559,146.8128,370.6,2,-9.9,9,124,7.2,1010,28.3,29.23,2,34.386,2,39.83
Mirai,MR99K1,348,1999,2,15,14,54,6.2305,146.8178,370.6,2,-9.9,9,126,7.9,1009.9,28.3,29.24,2,34.386,2,39.86
Mirai,MR99K1,349,1999,2,15,15,6,6.1799,146.828,-9.9,9,375.5,2,129,6.3,1009.8,28.1,29.25,2,34.393,2,39.88
Mirai,MR99K1,350,1999,2,15,15,18,6.1286,146.8389,-9.9,9,376.1,2,120,6.6,1009.7,28.1,29.25,2,34.405,2,39.88
Mirai,MR99K1,351,1999,2,15,15,30,6.0768,146.8496,-9.9,9,376,2,125,6.7,1009.4,28,29.24,2,34.403,2,39.86
Mirai,MR99K1,352,1999,2,15,15,42,6.0258,146.8598,-9.9,9,376.7,2,121,7.6,1009.5,28.1,29.29,2,34.429,2,39.97
Mirai,MR99K1,353,1999,2,15,15,54,5.9746,146.8699,-9.9,9,378.9,2,117,8.4,1009.3,28.1,29.36,2,34.462,2,40.11
Mirai,MR99K1,354,1999,2,15,16,24,5.8463,146.892,370.4,2,-9.9,9,123,10.4,1008.9,27.9,29.38,2,34.477,2,40.16
Mirai,MR99K1,355,1999,2,15,16,30,5.8213,146.8963,370.3,2,-9.9,9,123,10.2,1008.9,27.4,29.41,2,34.49,2,40.23
Mirai,MR99K1,356,1999,2,15,16,42,5.7697,146.9044,-9.9,9,380.8,2,109,12.2,1008.8,26.9,29.44,2,34.505,2,40.3
Mirai,MR99K1,357,1999,2,15,16,54,5.7185,146.9121,-9.9,9,381,2,103,8.2,1008.9,27.2,29.46,2,34.514,2,40.34
Mirai,MR99K1,358,1999,2,15,17,6,5.6673,146.9175,-9.9,9,381.4,2,124,8.9,1008.8,27.4,29.47,2,34.523,2,40.37
Mirai,MR99K1,359,1999,2,15,17,18,5.6162,146.9176,-9.9,9,381.5,2,147,9.6,1008.7,26.8,29.49,2,34.525,2,40.41
Mirai,MR99K1,360,1999,2,15,17,30,5.5653,146.9175,-9.9,9,381.3,2,121,9.7,1008.8,26.5,29.48,2,34.521,2,40.39
Mirai,MR99K1,361,1999,2,15,18,0,5.4381,146.9173,370.5,2,-9.9,9,150,16,1008.9,25.8,29.47,2,34.496,2,40.37
Mirai,MR99K1,362,1999,2,15,18,6,5.4139,146.9168,370.3,2,-9.9,9,149,15.8,1008.9,25.6,29.46,2,34.49,2,40.34
Mirai,MR99K1,363,1999,2,15,18,18,5.3653,146.9157,-9.9,9,380.4,2,147,15.6,1009.1,24.7,29.47,2,34.48,2,40.37
Mirai,MR99K1,364,1999,2,15,18,30,5.316,146.9151,-9.9,9,380.9,2,131,13.3,1009.3,24.6,29.49,2,34.478,2,40.42
Mirai,MR99K1,365,1999,2,15,18,42,5.2658,146.9139,-9.9,9,381.6,2,117,10.9,1009.1,24.7,29.51,2,34.502,2,40.46
Mirai,MR99K1,366,1999,2,15,18,54,5.2147,146.913,-9.9,9,382.7,2,108,8.9,1008.9,25,29.53,2,34.524,2,40.51
Mirai,MR99K1,367,1999,2,15,19,6,5.1629,146.9124,-9.9,9,383,2,120,5.6,1008.7,25.8,29.52,2,34.522,2,40.48
Mirai,MR99K1,368,1999,2,15,19,36,5.0341,146.9172,371.1,2,-9.9,9,124,4.7,1009,26.9,29.54,2,34.546,2,40.53
Mirai,MR99K1,369,1999,2,15,19,42,5.0081,146.9176,371.2,2,-9.9,9,130,4,1009,27,29.54,2,34.541,2,40.53
Mirai,MR99K1,370,1999,2,15,19,54,4.9569,146.9184,-9.9,9,383,2,220,7.3,1009.5,26.2,29.56,2,34.538,2,40.58
Mirai,MR99K1,371,1999,2,15,20,6,4.9062,146.9171,-9.9,9,382.2,2,212,7.6,1009.9,25.9,29.54,2,34.494,2,40.53
Mirai,MR99K1,372,1999,2,15,20,18,4.8552,146.9181,-9.9,9,382.1,2,193,7.8,1010.2,25.8,29.54,2,34.487,2,40.53
Mirai,MR99K1,373,1999,2,15,20,30,4.8046,146.9181,-9.9,9,381.3,2,182,8.4,1009.9,26.2,29.52,2,34.459,2,40.49
Mirai,MR99K1,374,1999,2,15,20,42,4.7541,146.9174,-9.9,9,383.3,2,186,8.4,1010.1,27,29.57,2,34.545,2,40.6
Mirai,MR99K1,375,1999,2,15,21,12,4.8019,147.0016,371,2,-9.9,9,184,8.3,1011.2,25.8,29.55,2,34.543,2,40.56
Mirai,MR99K1,376,1999,2,15,21,18,4.8282,147.001,370.8,2,-9.9,9,183,8.4,1011.3,26,29.51,2,34.493,2,40.46
Mirai,MR99K1,377,1999,2,15,21,30,4.8815,147,-9.9,9,379.7,2,184,7.4,1011.6,26.3,29.47,2,34.398,2,40.37
Mirai,MR99K1,378,1999,2,15,21,42,4.9343,146.9984,-9.9,9,381,2,194,7.8,1011.7,26.5,29.5,2,34.508,2,40.44
Mirai,MR99K1,379,1999,2,15,21,54,4.9868,146.9987,-9.9,9,382.9,2,251,5.9,1011.7,26,29.55,2,34.556,2,40.55
Mirai,MR99K1,380,1999,2,15,22,6,5.0388,147.0003,-9.9,9,383,2,259,6.2,1011.9,25.9,29.54,2,34.554,2,40.53
Mirai,MR99K1,381,1999,2,15,22,18,5.0909,147.0029,-9.9,9,382.3,2,257,8.4,1012.1,26,29.54,2,34.554,2,40.53
Mirai,MR99K1,382,1999,2,15,22,48,4.971,147.0323,370.3,2,-9.9,9,258,4.7,1011.9,26.4,29.56,2,34.555,2,40.58
Mirai,MR99K1,383,1999,2,15,22,54,4.9456,147.0276,370.6,2,-9.9,9,271,3.3,1012,26.6,29.56,2,34.554,2,40.58
Mirai,MR99K1,384,1999,2,15,23,6,4.8951,147.017,-9.9,9,382.8,2,281,3.5,1011.7,26.8,29.55,2,34.545,2,40.56
Mirai,MR99K1,385,1999,2,15,23,18,4.8609,147.0075,-9.9,9,380.9,2,290,2.8,1011.9,26.9,29.5,2,34.447,2,40.44
Mirai,MR99K1,386,1999,2,15,23,30,4.8644,147.0037,-9.9,9,379.3,2,266,2,1011.9,27.2,29.49,2,34.402,2,40.42
Mirai,MR99K1,387,1999,2,15,23,42,4.8734,147.0053,-9.9,9,378.9,2,239,1.2,1012.1,27.5,29.49,2,34.384,2,40.42